EW3182 Weather Reports


Display with metric or nautical units.
time (UTC)temp
F
wind
direction
speed
MPH
gust
MPH
rain 1hr
in
rain 24hr
in
rain mn
in
humidity
%
barometer
mb
20260505041543 74 238 1.0 8.0 0.00 0.00 0.00 72 1004.4
20260505040039 74 245 0.0 11.0 0.00 0.00 0.00 72 1004.5
20260505034538 74 264 3.0 10.0 0.00 0.00 0.00 71 1004.5
20260505033045 75 291 4.0 9.0 0.00 0.00 0.00 71 1004.4
20260505031536 75 139 2.0 8.0 0.00 0.00 0.00 71 1004.4
20260505030036 75 311 1.0 8.0 0.00 0.00 0.00 70 1004.5
20260505024535 75 262 3.0 10.0 0.00 0.00 0.00 70 1004.6
20260505023035 75 239 2.0 7.0 0.00 0.00 0.00 69 1004.4
20260505021534 75 236 1.0 8.0 0.00 0.00 0.00 69 1004.2
20260505020033 75 159 2.0 7.0 0.00 0.00 0.00 68 1004.3
20260505014533 76 252 2.0 9.0 0.00 0.00 0.00 68 1004.2
20260505013032 76 295 1.0 8.0 0.00 0.00 0.00 68 1004.4
20260505011553 76 289 3.0 11.0 0.00 0.00 0.00 67 1004.3
20260505010031 76 205 2.0 9.0 0.00 0.00 0.00 67 1004.4
20260505004531 76 243 3.0 14.0 0.00 0.00 0.00 66 1004.3
20260505003030 77 287 3.0 15.0 0.00 0.00 0.00 65 1004.4
20260505001529 77 180 3.0 10.0 0.00 0.00 0.00 65 1004.5
20260505000037 77 264 2.0 9.0 0.00 0.00 0.00 64 1004.6
20260504234529 78 205 2.0 10.0 0.00 0.00 0.00 64 1004.6
20260504233025 78 152 3.0 10.0 0.00 0.00 0.00 63 1005.0
20260504231524 78 215 2.0 11.0 0.00 0.00 0.00 63 1004.9
20260504230023 79 259 2.0 11.0 0.00 0.00 0.00 62 1004.8
20260504224521 79 224 3.0 11.0 0.00 0.00 0.00 61 1005.3
20260504223024 79 263 3.0 14.0 0.00 0.00 0.00 60 1005.2
20260504221520 79 127 3.0 11.0 0.00 0.00 0.00 60 1005.1
20260504220016 80 285 3.0 13.0 0.00 0.00 0.00 59 1005.4
20260504214515 80 294 3.0 12.0 0.00 0.00 0.00 59 1005.6
20260504213014 80 128 3.0 15.0 0.00 0.00 0.00 59 1005.9
20260504211512 81 212 3.0 9.0 0.00 0.00 0.00 60 1005.9
20260504210016 81 246 2.0 10.0 0.00 0.00 0.00 58 1006.3
20260504204509 80 255 3.0 10.0 0.00 0.00 0.00 58 1006.4
20260504203005 80 246 3.0 10.0 0.00 0.00 0.00 59 1006.9
20260504201501 79 99 4.0 12.0 0.00 0.00 0.00 58 1007.2
20260504200103 80 283 5.0 11.0 0.00 0.00 0.00 57 1007.5
20260504194603 79 238 3.0 11.0 0.00 0.00 0.00 58 1008.0
20260504193056 79 11 3.0 10.0 0.00 0.00 0.00 58 1008.0
20260504191607 78 246 4.0 13.0 0.00 0.00 0.00 59 1008.2
20260504190051 78 115 3.0 0.0 0.00 0.00 0.00 58 1008.5
20260504184547 78 212 1.0 11.0 0.00 0.00 0.00 58 1008.7
20260504183044 77 138 4.0 10.0 0.00 0.00 0.00 58 1009.0
20260504181541 78 262 3.0 7.0 0.00 0.00 0.00 58 1009.2
20260504180039 77 298 3.0 9.0 0.00 0.00 0.00 59 1009.4
20260504174536 77 185 3.0 10.0 0.00 0.00 0.00 58 1009.8
20260504173033 76 238 1.0 9.0 0.00 0.00 0.00 61 1009.8
20260504171543 75 302 2.0 12.0 0.00 0.00 0.00 60 1010.2
20260504090112 63 293 1.0 5.0 0.00 0.00 0.00 69 1012.3
20260504081553 64 214 0.0 6.0 0.00 0.00 0.00 66 1012.5